Flag for U.S.A. Weather past 2 weeks in Tacoma, Washington, U.S.A.

Now
76 °F

Sunny.


Feels Like: 78 °F
Forecast: 56 / 84 °F
Wind: 7 mph from Northeast

Location: Tacoma Narrows Airport

Current Time: Jul 28, 2015 at 8:02:33 PM

Latest Report: Jul 28, 2015 at 6:53 PM


Visibility: 10 mi

Pressure: 30.18 "Hg

Humidity: 37%

Dew point: 48 °F

Location of TacomaLocation

Historic Weather in Tacoma — Graph

°F

Tacoma temperature yesterday

Maximum temperature yesterday: 72 °F (at 3:53 PM)
Minimum temperature yesterday: 54 °F (at 2:53 AM)
Average temperature yesterday: 62 °F

Past Weeks' High & Low Weather Summary

 TemperatureHumidityPressure
High92 °F (Jul 19, 2:53 PM)100% (Jul 27, 5:53 AM)30.28 "Hg (Jul 27, 5:53 AM)
Low54 °F (Jul 27, 2:53 AM)20% (Jul 18, 4:53 PM)29.86 "Hg (Jul 22, 7:53 PM)
Average66 °F62%30.04 "Hg
* Reported Jul 13 6:53 PM — Jul 28 6:53 PM, Tacoma, Weather by CustomWeather, © 2015

Note: Actual official high and low records may vary slightly from our data, if they occured in-between our weather recording intervals... More about our weather records

Advertising

Tacoma weather history for previous 24 hours

 ConditionsComfort  
Time TempWeatherWind HumidityBarometerVisibility
6:53 PM
Tue, Jul 28
76 °FSunny.7 mph37%30.18 "Hg10 mi
5:53 PM79 °FSunny.10 mph35%30.18 "Hg10 mi
4:53 PM78 °FSunny.10 mph36%30.19 "Hg10 mi
3:53 PM77 °FSunny.9 mph37%30.21 "Hg10 mi
2:53 PM76 °FSunny.10 mph39%30.22 "Hg10 mi
1:53 PM75 °FSunny.5 mph43%30.24 "Hg10 mi
12:53 PM72 °FSunny.8 mph49%30.25 "Hg10 mi
11:53 AM70 °FPassing clouds.7 mph51%30.26 "Hg10 mi
10:53 AM68 °FSunny.7 mph57%30.27 "Hg10 mi
9:53 AM64 °FSunny.6 mph65%30.27 "Hg10 mi
8:53 AM62 °FSunny.No wind73%30.28 "Hg10 mi
7:53 AM59 °FSunny.No wind84%30.28 "Hg10 mi
6:53 AM57 °FSunny.No wind87%30.27 "Hg10 mi
5:53 AM54 °FClear.3 mph93%30.26 "Hg10 mi
4:53 AM57 °FClear.No wind83%30.26 "Hg10 mi
3:53 AM56 °FClear.No wind87%30.26 "Hg10 mi
2:53 AM58 °FClear.No wind81%30.27 "Hg10 mi
1:53 AM59 °FClear.3 mph78%30.25 "Hg10 mi
12:53 AM60 °FPassing clouds.3 mph72%30.24 "Hg10 mi
11:53 PM
Mon, Jul 27
63 °FOvercast.6 mph65%30.24 "Hg10 mi
10:53 PM65 °FOvercast.5 mph59%30.23 "Hg10 mi
9:53 PM67 °FOvercast.5 mph57%30.23 "Hg10 mi
8:53 PM68 °FPartly sunny.No wind55%30.22 "Hg10 mi
Weather by CustomWeather, © 2015

See weather overviewHow to use our weather pages